TimeEST,TemperatureF,Dew PointF,Humidity,Sea Level PressureIn,VisibilityMPH,Wind Direction,Wind SpeedMPH,Gust SpeedMPH,PrecipitationIn,Events,Conditions,WindDirDegrees,DateUTC
12:03 AM,39.2,39.2,100,30.18,2.5,Calm,Calm,-,N/A,,Clear,0,2012-11-22 05:03:00
12:13 AM,41.0,39.2,93,30.18,3.0,Calm,Calm,-,N/A,,Clear,0,2012-11-22 05:13:00
12:33 AM,39.2,39.2,100,30.17,2.5,Calm,Calm,-,N/A,,Clear,0,2012-11-22 05:33:00
12:54 AM,39.9,39.0,97,30.18,2.5,Calm,Calm,-,N/A,,Clear,0,2012-11-22 05:54:00
1:10 AM,37.4,37.4,100,30.17,1.8,Calm,Calm,-,N/A,,Clear,0,2012-11-22 06:10:00
1:18 AM,41.0,39.2,93,30.17,2.5,Calm,Calm,-,N/A,,Clear,0,2012-11-22 06:18:00
1:25 AM,39.2,39.2,100,30.16,3.0,Calm,Calm,-,N/A,,Clear,0,2012-11-22 06:25:00
1:33 AM,37.4,37.4,100,30.16,1.8,Calm,Calm,-,N/A,,Partly Cloudy,0,2012-11-22 06:33:00
1:46 AM,37.4,37.4,100,30.16,1.0,Calm,Calm,-,N/A,,Mist,0,2012-11-22 06:46:00
1:52 AM,39.2,39.2,100,30.16,2.0,Calm,Calm,-,N/A,,Partly Cloudy,0,2012-11-22 06:52:00
1:54 AM,39.0,39.0,100,30.16,2.5,Calm,Calm,-,N/A,,Partly Cloudy,0,2012-11-22 06:54:00
2:15 AM,39.2,39.2,100,30.16,3.0,Calm,Calm,-,N/A,,Clear,0,2012-11-22 07:15:00
2:54 AM,39.9,37.9,93,30.16,4.0,Calm,Calm,-,N/A,,Clear,0,2012-11-22 07:54:00
3:54 AM,39.0,37.9,96,30.15,4.0,Calm,Calm,-,N/A,,Clear,0,2012-11-22 08:54:00
4:54 AM,37.0,37.0,100,30.15,3.0,Calm,Calm,-,N/A,,Clear,0,2012-11-22 09:54:00
5:54 AM,39.0,37.9,96,30.15,3.0,Calm,Calm,-,N/A,,Clear,0,2012-11-22 10:54:00
6:27 AM,37.4,37.4,100,30.14,2.5,Calm,Calm,-,N/A,,Clear,0,2012-11-22 11:27:00
6:42 AM,37.4,37.4,100,30.14,1.5,Calm,Calm,-,N/A,,Clear,0,2012-11-22 11:42:00
6:49 AM,37.4,37.4,100,30.14,3.0,Calm,Calm,-,N/A,,Clear,0,2012-11-22 11:49:00
6:54 AM,37.9,37.0,97,30.14,2.5,Calm,Calm,-,N/A,,Clear,0,2012-11-22 11:54:00
7:06 AM,37.4,37.4,100,30.13,1.8,SSW,3.5,-,N/A,,Clear,200,2012-11-22 12:06:00
7:28 AM,41.0,39.2,93,30.13,4.0,SSW,5.8,-,N/A,,Clear,200,2012-11-22 12:28:00
7:54 AM,42.1,39.9,92,30.13,3.0,SSW,5.8,-,N/A,,Clear,200,2012-11-22 12:54:00
8:54 AM,45.0,42.1,90,30.13,4.0,SSW,5.8,-,N/A,,Clear,210,2012-11-22 13:54:00
9:54 AM,50.0,44.1,80,30.12,5.0,SW,6.9,-,N/A,,Haze,220,2012-11-22 14:54:00
10:54 AM,53.1,45.0,74,30.11,6.0,SSW,6.9,17.3,N/A,,Haze,210,2012-11-22 15:54:00
11:54 AM,55.9,44.1,64,30.08,7.0,SSW,12.7,20.7,N/A,,Clear,200,2012-11-22 16:54:00
12:54 PM,60.1,43.0,53,30.04,10.0,SW,15.0,20.7,N/A,,Clear,220,2012-11-22 17:54:00
1:54 PM,60.1,42.1,51,30.01,10.0,SW,13.8,19.6,N/A,,Clear,230,2012-11-22 18:54:00
2:54 PM,61.0,41.0,48,29.99,10.0,SSW,12.7,21.9,N/A,,Mostly Cloudy,210,2012-11-22 19:54:00
3:54 PM,59.0,39.9,49,29.97,10.0,SSW,10.4,17.3,N/A,,Scattered Clouds,200,2012-11-22 20:54:00
4:54 PM,59.0,41.0,51,29.96,10.0,SSW,8.1,-,N/A,,Clear,210,2012-11-22 21:54:00
5:54 PM,57.0,41.0,55,29.95,10.0,SSW,9.2,-,N/A,,Scattered Clouds,210,2012-11-22 22:54:00
6:54 PM,57.0,41.0,55,29.94,10.0,SSW,11.5,-,N/A,,Clear,200,2012-11-22 23:54:00
7:54 PM,55.9,41.0,57,29.94,10.0,SSW,5.8,-,N/A,,Scattered Clouds,210,2012-11-23 00:54:00
8:54 PM,55.9,41.0,57,29.94,10.0,SW,8.1,-,N/A,,Overcast,230,2012-11-23 01:54:00
9:54 PM,53.1,46.0,77,29.93,10.0,North,-9999.0,-,0.03,Rain,Light Rain,0,2012-11-23 02:54:00
10:54 PM,53.1,46.0,77,29.92,10.0,North,-9999.0,-,0.00,,Overcast,0,2012-11-23 03:54:00
11:54 PM,52.0,50.0,93,29.91,5.0,North,-9999.0,-,0.07,Rain,Rain,0,2012-11-23 04:54:00